Date,TemperatureHighF,TemperatureAvgF,TemperatureLowF,DewpointHighF,DewpointAvgF,DewpointLowF,HumidityHigh,HumidityAvg,HumidityLow,PressureMaxIn,PressureMinIn,WindSpeedMaxMPH,WindSpeedAvgMPH,GustSpeedMaxMPH,PrecipitationSumIn
2013-1-1,46.1,41.1,36.2,42.0,33.3,13.9,97,76,35,30.29,30.05,18,4,20,0.19
2013-1-2,36.3,31.8,29.0,34.6,28.9,24.7,94,89,81,30.36,30.09,15,4,15,0.19
2013-1-3,36.1,30.5,27.7,28.4,23.2,17.7,94,76,49,30.43,30.33,17,3,17,0.01
2013-1-4,36.9,28.6,23.3,20.6,18.9,16.8,78,67,46,30.50,30.39,20,7,22,0.01
2013-1-5,46.4,35.2,26.7,26.6,20.2,17.8,73,56,33,30.60,30.39,21,4,23,0.00
2013-1-6,39.8,35.7,30.8,32.2,29.3,25.6,92,78,65,30.40,30.23,20,5,20,0.02
2013-1-7,45.0,34.0,26.3,28.3,24.6,22.1,92,69,43,30.60,30.34,19,4,22,0.00
2013-1-8,49.7,35.0,21.2,34.1,26.9,18.4,92,74,46,30.64,30.55,16,1,17,0.00
2013-1-9,60.7,49.3,38.2,48.3,44.3,33.2,93,83,62,30.59,30.51,20,3,21,0.00
2013-1-10,58.1,47.9,41.1,45.8,32.8,25.6,86,58,30,30.68,30.55,15,2,16,0.00
2013-1-11,53.2,44.3,36.1,50.7,41.1,31.0,96,89,60,30.55,30.28,20,3,23,0.01
2013-1-12,69.3,59.9,49.7,58.5,54.7,48.0,95,84,63,30.31,30.19,14,3,18,0.01
2013-1-13,66.1,61.1,58.0,56.0,54.7,53.0,88,80,65,30.20,30.10,19,5,21,0.00
2013-1-14,60.9,50.5,39.0,56.7,48.5,37.7,95,93,83,30.36,30.14,14,2,16,0.79
2013-1-15,42.4,38.8,34.6,41.3,37.6,33.3,96,95,94,30.39,30.23,11,2,11,1.63
2013-1-16,58.2,44.7,34.4,51.2,42.7,33.4,98,93,76,30.25,30.10,11,2,11,0.05
2013-1-17,42.6,35.0,29.0,41.3,33.7,27.1,97,95,89,30.35,30.09,12,2,15,0.46
2013-1-18,35.4,27.1,19.9,27.1,23.1,18.0,93,85,66,30.71,30.35,13,1,13,0.70
2013-1-19,48.3,33.9,18.6,32.6,24.2,16.2,93,70,36,30.66,30.29,9,1,11,0.31
2013-1-20,46.4,39.2,32.6,30.7,27.7,23.0,77,64,50,30.29,30.17,22,5,27,0.01
2013-1-21,46.1,34.9,25.4,26.6,19.7,5.5,79,55,36,30.24,30.06,24,6,27,0.01
2013-1-22,25.2,18.0,12.7,8.6,-0.3,-5.3,57,45,28,30.45,30.12,20,7,21,0.00
2013-1-23,32.4,21.3,11.7,21.2,7.4,-2.2,65,55,38,30.54,30.23,23,4,23,0.00
2013-1-24,34.8,20.9,11.9,25.0,9.4,2.1,74,61,46,30.69,30.16,32,7,35,0.00
2013-1-25,33.3,18.6,11.4,29.8,12.8,1.5,92,78,56,30.67,30.27,12,3,13,0.00
2013-1-26,35.9,29.2,23.3,30.0,22.5,18.0,87,76,60,30.58,30.27,17,6,18,0.02
2013-1-27,31.7,24.9,15.1,25.5,20.2,12.6,91,82,76,30.75,30.58,12,3,12,0.01
2013-1-28,57.3,43.8,31.2,43.8,36.4,25.0,92,76,56,30.64,30.16,15,3,15,0.04
2013-1-29,67.9,56.4,47.4,54.3,47.2,42.8,86,73,45,30.18,29.97,15,4,18,0.04
2013-1-30,62.0,57.4,44.5,57.8,54.3,42.3,95,90,85,29.97,29.36,33,8,40,2.48
2013-1-31,47.0,32.5,28.7,42.7,23.4,16.5,89,69,55,30.01,29.41,32,9,32,2.50
2013-2-1,34.5,20.5,13.9,28.3,9.0,1.7,90,61,45,30.45,29.89,31,8,31,0.00
2013-2-2,30.6,23.0,11.7,25.1,13.7,5.0,90,68,47,30.47,30.13,14,3,14,0.00
2013-2-3,34.3,29.3,25.8,27.5,23.1,18.4,92,78,70,30.13,29.95,25,8,29,0.01
2013-2-4,41.0,29.7,20.4,24.8,19.0,13.8,76,65,47,30.22,30.05,21,5,25,0.01
2013-2-5,46.4,39.7,33.8,35.4,30.3,23.0,79,69,53,30.05,29.98,21,6,21,0.00
2013-2-6,51.5,39.9,28.4,33.0,27.3,22.4,81,63,36,30.31,30.02,15,3,17,0.00
2013-2-7,34.6,31.9,28.0,32.0,28.9,22.4,95,88,74,30.36,30.12,11,2,13,0.14
2013-2-8,47.7,35.0,30.3,40.6,30.8,23.8,97,85,59,30.12,29.89,31,6,31,0.29
2013-2-9,45.3,32.6,24.2,24.3,16.6,10.5,78,55,26,30.40,30.08,29,7,34,0.29
2013-2-10,44.5,33.6,21.7,33.6,20.2,15.3,91,60,37,30.49,30.21,16,3,16,0.06
2013-2-11,59.4,49.7,35.9,50.4,41.9,32.4,99,76,49,30.21,29.93,27,7,27,0.08
2013-2-12,51.4,42.5,35.3,33.3,23.4,18.9,73,48,28,30.08,27.34,23,6,27,0.00
2013-2-13,41.2,37.4,32.9,38.4,34.1,28.5,95,88,73,29.96,29.64,23,4,25,0.03
2013-2-14,48.8,36.6,28.1,29.3,25.3,20.8,86,65,33,30.03,29.83,18,4,18,0.03
2013-2-15,50.6,39.2,31.7,36.2,30.7,26.0,95,73,45,30.07,29.94,23,4,23,0.02
2013-2-16,31.7,26.9,20.3,28.6,19.1,11.9,88,72,55,29.99,29.83,25,6,25,0.02
2013-2-17,24.4,19.2,13.0,15.4,6.9,3.6,86,59,42,30.16,29.87,36,9,36,0.00
2013-2-18,46.9,33.5,19.2,24.3,16.1,4.8,61,49,36,30.28,30.11,15,4,18,0.00
2013-2-19,46.5,38.9,31.2,37.9,25.7,10.7,89,61,33,30.12,29.82,32,8,32,0.02
2013-2-20,40.0,30.6,24.9,13.8,9.2,4.0,58,42,23,30.11,29.93,28,9,31,0.00
2013-2-21,48.2,34.0,22.1,17.7,13.2,9.9,63,44,22,30.23,30.07,20,6,20,0.00
2013-2-22,37.4,29.2,26.0,29.0,26.6,15.0,96,91,40,30.27,30.07,13,3,14,0.10
2013-2-23,51.4,38.3,29.6,45.2,36.1,28.0,97,92,78,30.10,29.85,7,1,8,0.15
2013-2-24,48.7,40.7,34.1,39.4,27.0,17.8,96,61,32,30.05,29.84,22,6,23,0.15
2013-2-25,35.9,30.5,25.7,24.6,21.7,19.5,81,70,57,30.15,30.04,13,2,13,0.00
2013-2-26,35.7,31.7,26.7,34.1,28.2,19.6,95,87,67,30.11,29.62,18,3,24,1.13
2013-2-27,45.2,37.9,31.6,34.0,31.7,29.0,100,79,62,29.79,29.63,18,5,19,1.13
2013-2-28,35.0,31.5,29.6,29.1,25.6,22.8,90,79,63,29.84,29.71,23,6,23,0.00
2013-3-1,34.2,31.3,29.4,27.4,24.6,21.8,85,76,67,29.89,29.80,19,6,24,0.00
2013-3-2,30.6,27.3,23.2,23.0,20.4,14.9,81,75,68,29.89,29.82,24,7,24,0.00
2013-3-3,27.2,23.5,21.4,18.0,15.3,12.6,76,70,61,29.93,29.85,24,9,25,0.00
2013-3-4,42.0,29.5,19.3,16.2,12.2,5.5,79,52,22,30.05,29.92,24,6,25,0.00
2013-3-5,44.2,35.9,30.6,33.4,27.1,16.1,94,72,40,30.05,29.63,14,2,14,0.66
2013-3-6,34.5,29.2,25.5,33.0,25.3,21.6,94,85,77,30.06,29.62,28,10,31,0.68
2013-3-7,32.4,30.2,28.9,26.0,24.7,23.0,85,80,72,30.22,30.05,25,8,28,0.00
2013-3-8,41.6,34.2,29.6,25.3,23.3,21.0,77,65,49,30.31,30.16,22,7,26,0.00
2013-3-9,56.7,41.5,25.1,30.2,26.1,20.9,86,57,32,30.33,30.24,9,1,11,0.00
2013-3-10,60.2,44.8,28.5,33.7,29.5,24.3,86,58,34,30.30,30.20,14,3,17,0.00
2013-3-11,53.9,49.3,44.0,49.3,37.9,19.9,91,66,35,30.21,29.91,22,5,22,0.05
2013-3-12,52.4,45.9,35.1,51.0,39.3,28.7,96,79,52,30.00,29.78,19,6,22,0.64
2013-3-13,39.8,33.0,25.2,31.4,23.6,13.8,93,68,56,30.10,29.98,25,7,27,0.01
2013-3-14,39.8,29.8,21.7,17.5,14.7,12.2,79,55,34,30.21,30.08,24,8,27,0.01
2013-3-15,57.1,42.8,28.6,35.4,25.8,14.0,63,51,41,30.14,29.92,29,6,31,0.00
2013-3-16,71.2,57.0,45.3,50.9,44.2,32.8,82,64,40,29.93,29.73,27,6,32,0.03
2013-3-17,53.9,41.2,31.7,48.5,39.3,30.4,100,93,81,30.15,29.92,14,2,14,0.15
2013-3-18,32.3,30.4,28.2,31.0,29.0,26.7,95,94,94,30.15,29.87,13,3,17,0.09
2013-3-19,52.1,40.7,29.6,39.4,23.1,0.9,96,58,18,30.05,29.82,25,7,28,0.10
2013-3-20,46.5,37.2,28.7,23.2,10.7,1.5,63,34,21,30.05,29.81,23,6,23,0.00
2013-3-21,34.3,23.6,19.3,26.3,13.8,7.5,85,66,46,29.93,29.75,26,8,26,0.00
2013-3-22,43.4,28.6,15.9,16.4,11.4,8.0,72,51,28,30.01,29.92,17,5,18,0.00
2013-3-23,48.1,37.8,29.1,30.8,22.3,13.6,82,54,40,30.03,29.92,14,2,14,0.00
2013-3-24,34.7,30.1,27.3,29.8,26.8,23.8,94,88,64,29.95,29.57,15,1,18,0.15
2013-3-25,33.8,29.6,26.7,27.7,24.9,21.9,94,83,66,29.78,29.53,29,4,29,0.23
2013-3-26,35.1,30.6,28.9,27.1,24.1,22.0,83,77,67,30.09,29.78,19,8,23,0.01
2013-3-27,35.5,30.9,27.0,25.0,22.7,19.0,90,72,59,30.19,30.09,19,7,21,0.01
2013-3-28,42.5,34.1,29.0,25.0,22.8,20.0,86,65,47,30.26,30.17,16,5,21,0.05
2013-3-29,51.2,39.8,28.3,26.0,23.2,20.0,75,54,33,30.29,30.17,11,2,17,0.05
2013-3-30,56.9,43.6,29.1,31.0,27.4,25.0,88,57,29,30.24,30.10,7,2,12,0.00
2013-3-31,56.9,50.4,44.5,48.0,43.2,33.0,95,77,54,30.09,29.85,16,4,21,0.09
2013-4-1,55.0,46.8,35.7,44.0,38.2,29.0,89,73,53,30.03,29.88,16,5,28,0.02
2013-4-2,46.9,37.3,28.6,28.0,18.6,12.0,83,51,26,30.15,30.02,17,4,23,0.02
2013-4-3,47.8,37.8,27.0,19.0,13.9,9.0,58,39,25,30.31,30.15,10,4,16,0.00
2013-4-4,35.4,32.1,29.1,31.0,19.8,11.0,94,63,38,30.31,29.99,16,3,18,0.00
2013-4-5,54.0,40.7,31.9,37.0,31.6,27.0,95,74,40,30.08,29.94,14,3,21,0.60
2013-4-6,57.7,45.1,30.7,34.0,29.6,26.0,85,57,38,30.25,30.08,11,2,17,0.60
2013-4-7,62.5,53.2,40.2,44.0,37.7,27.0,75,57,45,30.22,30.12,11,4,18,0.00
2013-4-8,72.2,66.5,47.5,50.7,46.8,40.0,77,50,35,30.18,30.09,16,5,19,0.00
2013-4-9,78.6,66.5,52.7,53.4,50.1,46.4,81,57,37,30.24,30.13,13,3,16,0.00
2013-4-10,82.8,71.2,58.2,55.7,53.0,48.6,79,54,33,30.17,30.03,13,4,14,0.00
2013-4-11,75.5,67.7,60.2,60.6,54.6,50.0,91,64,44,30.04,29.83,19,5,20,0.38
2013-4-12,70.0,61.2,51.3,61.4,51.7,36.0,95,73,37,29.89,29.74,22,7,27,0.02
2013-4-13,66.7,56.0,44.7,39.3,32.6,25.3,67,44,23,30.07,29.88,20,6,21,0.02
2013-4-14,71.9,59.6,43.3,43.9,35.0,30.0,69,42,25,30.15,30.07,19,3,19,0.00
2013-4-15,60.5,52.6,48.7,51.4,49.4,43.0,95,89,54,30.28,30.09,14,3,15,0.01
2013-4-16,71.3,61.0,52.7,58.7,55.1,51.0,98,82,62,30.34,30.24,13,3,14,0.01
2013-4-17,73.9,63.9,57.2,57.9,55.4,53.1,88,75,49,30.30,30.21,11,2,12,0.00
2013-4-18,70.1,64.5,57.1,58.8,55.7,50.5,89,74,52,30.23,30.05,23,4,24,0.00
2013-4-19,65.2,59.5,44.0,60.7,55.1,38.4,91,85,75,30.05,29.78,37,8,37,0.67
2013-4-20,53.0,43.6,34.6,38.4,28.4,24.9,81,57,35,30.31,29.93,26,7,26,0.67
2013-4-21,52.2,41.6,29.3,33.6,29.8,25.6,87,64,45,30.48,30.31,16,2,16,0.00
2013-4-22,54.2,43.8,32.1,33.5,28.1,20.3,89,58,28,30.45,30.29,14,3,16,0.00
2013-4-23,65.0,51.8,41.4,47.1,40.5,33.0,81,67,44,30.31,30.14,12,2,13,0.00
2013-4-24,66.5,58.2,48.8,55.0,49.6,45.0,89,74,50,30.16,30.02,10,4,22,0.01
2013-4-25,60.0,47.6,35.1,44.0,31.1,20.0,87,57,22,30.33,30.13,15,4,20,0.02
2013-4-26,61.6,56.8,35.2,37.0,33.5,25.0,78,42,35,30.44,30.34,12,3,14,0.00
2013-4-27,60.1,53.6,48.2,48.8,42.2,34.9,92,66,49,30.38,30.28,11,2,11,0.04
2013-4-28,52.0,49.2,47.4,48.7,46.7,45.0,96,91,78,30.28,30.07,16,4,21,0.47
2013-4-29,62.5,53.1,47.0,54.8,50.6,45.9,96,92,67,30.12,30.04,11,2,13,0.01
2013-4-30,64.9,57.4,52.5,54.8,52.5,50.6,94,84,66,30.26,30.08,11,2,14,0.01
2013-5-1,62.7,54.3,50.9,52.0,49.4,45.2,94,84,61,30.38,30.25,17,3,17,0.01
2013-5-2,58.0,52.4,46.0,51.4,47.4,41.9,91,83,76,30.38,30.30,13,3,14,0.01
2013-5-3,57.5,51.4,46.7,48.2,44.8,40.8,92,79,63,30.32,30.22,26,4,26,0.00
2013-5-4,56.6,46.7,40.6,46.2,41.4,37.4,92,82,61,30.23,30.13,19,5,24,0.01
2013-5-5,48.7,45.0,40.5,47.3,40.7,31.0,95,85,63,30.16,30.03,21,5,23,0.37
2013-5-6,54.6,50.3,48.0,53.1,48.9,46.4,96,95,93,30.05,29.92,18,4,22,1.39
2013-5-7,55.0,50.7,45.8,52.8,48.9,44.2,96,94,86,29.99,29.93,10,1,12,0.21
2013-5-8,55.0,48.9,43.0,51.7,47.3,41.7,96,94,86,30.08,29.97,10,1,11,0.46
2013-5-9,72.8,59.9,44.7,55.4,50.2,43.2,96,73,42,30.16,30.05,16,2,16,0.47
2013-5-10,74.9,62.0,48.5,58.0,53.1,46.1,94,75,46,30.16,30.02,19,2,20,0.32
2013-5-11,70.7,62.6,56.6,58.7,55.9,52.8,94,79,59,30.04,29.89,17,4,17,0.14
2013-5-12,56.6,50.4,44.1,53.0,36.5,28.6,88,61,38,30.10,29.92,23,7,26,0.14
2013-5-13,54.5,46.8,38.8,32.0,28.5,23.9,69,50,32,30.21,30.08,21,4,21,0.00
2013-5-14,65.5,50.7,31.1,44.6,35.4,25.8,92,60,29,30.24,30.07,14,3,16,0.00
2013-5-15,83.0,69.1,53.8,59.7,54.0,44.0,78,60,39,30.11,30.02,17,4,22,0.00
2013-5-16,75.7,67.9,62.5,57.1,53.8,50.3,74,61,47,30.11,30.03,16,4,19,0.00
2013-5-17,77.0,64.4,54.9,64.6,57.6,51.1,93,80,47,30.21,30.10,14,1,16,0.21
2013-5-18,67.0,61.3,58.6,62.4,59.3,56.9,95,93,84,30.24,30.17,11,2,14,0.39
2013-5-19,68.5,62.5,59.5,64.2,60.5,57.8,96,93,83,30.21,30.13,10,3,11,0.04
2013-5-20,74.6,65.2,59.6,65.7,61.7,58.1,96,89,70,30.19,30.11,13,2,15,0.09
2013-5-21,83.7,69.4,57.7,66.8,62.2,56.3,96,80,47,30.15,30.05,16,2,18,0.10
2013-5-22,78.4,66.7,57.6,67.5,61.1,55.9,95,83,57,30.10,30.00,17,2,17,0.13
2013-5-23,76.1,64.9,58.7,64.1,58.4,54.3,94,80,50,30.04,29.92,15,3,19,0.04
2013-5-24,60.1,52.1,45.1,55.0,42.6,33.9,91,71,46,30.23,29.94,29,9,36,0.05
2013-5-25,63.3,51.2,40.4,36.6,31.9,24.1,73,50,29,30.31,30.22,18,5,22,0.00
2013-5-26,66.6,55.9,47.6,44.2,40.6,36.0,78,58,39,30.30,30.23,16,3,19,0.00
2013-5-27,70.2,58.5,43.5,56.6,48.3,39.5,92,70,49,30.33,30.22,13,2,13,0.00
2013-5-28,77.2,68.0,58.2,63.2,58.1,53.5,89,72,49,30.29,30.21,11,3,15,0.03
2013-5-29,80.9,70.3,60.4,63.4,59.6,54.5,91,70,41,30.30,30.24,13,3,13,0.03
2013-5-30,80.1,69.2,55.4,63.9,58.8,53.1,94,71,44,30.34,30.27,13,2,13,0.00
2013-5-31,78.4,68.3,54.0,63.6,59.1,51.7,94,74,53,30.30,30.20,15,3,16,0.00
2013-6-1,79.2,71.3,62.8,65.3,60.8,56.8,89,71,48,30.22,30.11,19,4,21,0.00
2013-6-2,73.5,67.5,62.8,65.9,62.5,60.4,93,84,74,30.12,30.02,16,3,16,0.12
2013-6-3,73.7,66.3,58.6,63.4,60.4,55.3,94,82,64,30.10,29.98,17,3,20,0.14
2013-6-4,72.6,62.3,52.3,61.9,56.8,50.6,95,83,55,30.20,30.09,13,2,13,0.00
2013-6-5,66.2,60.5,54.0,60.5,57.5,52.2,96,90,79,30.22,30.12,21,2,21,0.00
2013-6-6,67.6,62.0,58.7,65.1,60.1,57.3,96,94,83,30.12,29.92,10,2,12,0.44
2013-6-7,69.1,64.5,59.2,65.6,62.1,56.6,96,92,84,29.96,29.77,18,2,18,0.02
2013-6-8,76.4,65.3,56.0,63.7,58.0,54.0,94,79,53,30.21,29.94,10,2,11,0.14
2013-6-9,77.9,68.7,59.5,66.6,62.5,57.8,96,82,59,30.25,30.17,12,2,18,0.12
2013-6-10,73.8,66.8,60.7,66.7,63.0,58.0,94,88,69,30.18,29.97,18,3,22,0.45
2013-6-11,75.2,67.0,59.4,62.4,60.0,57.5,95,79,60,30.09,29.99,20,4,26,0.64
2013-6-12,84.0,72.7,61.9,70.8,64.8,58.4,89,77,56,30.10,30.02,21,3,21,0.00
2013-6-13,83.7,71.9,59.6,68.2,64.0,53.8,90,77,52,30.02,29.79,28,6,35,0.09
2013-6-14,72.0,62.8,56.9,55.9,53.5,51.5,84,72,52,30.15,29.90,21,5,21,0.09
2013-6-15,77.8,65.6,51.7,58.6,53.9,49.5,94,69,43,30.23,30.14,12,2,15,0.00
2013-6-16,80.0,70.2,58.6,66.2,61.3,55.0,93,75,53,30.19,30.11,15,2,16,0.00
2013-6-17,80.9,70.4,64.3,68.3,64.6,62.0,95,83,54,30.16,30.06,18,2,18,0.00
2013-6-18,70.2,66.5,61.1,66.8,63.9,59.7,95,91,81,30.08,29.93,10,1,11,0.00
2013-6-19,74.4,65.5,56.2,65.9,61.0,55.1,97,86,63,30.24,30.03,11,2,11,0.00
2013-6-20,73.2,67.0,61.4,64.6,61.9,59.3,94,84,70,30.34,30.23,12,2,13,0.00
2013-6-21,79.3,66.8,56.2,64.3,59.9,54.7,97,80,57,30.36,30.31,12,1,12,0.00
2013-6-22,80.0,66.7,51.9,64.9,58.7,49.9,95,78,49,30.35,30.24,11,1,11,0.00
2013-6-23,82.1,71.4,60.6,67.5,63.6,58.9,96,78,51,30.32,30.23,11,2,11,0.00
2013-6-24,83.5,72.1,61.5,69.7,65.3,59.5,96,80,56,30.31,30.20,11,1,14,0.00
2013-6-25,81.6,70.9,64.3,69.5,65.3,62.5,95,84,62,30.24,30.13,14,2,14,0.00
2013-6-26,84.2,70.7,62.1,70.0,65.4,60.7,97,85,55,30.15,30.04,23,2,23,0.00
2013-6-27,78.8,71.1,65.7,69.2,65.4,62.2,94,83,67,30.05,29.87,17,3,18,0.00
2013-6-28,82.0,73.0,66.4,69.8,65.1,61.1,94,77,56,29.90,29.74,20,4,22,0.00
2013-6-29,79.1,69.8,62.0,66.2,62.7,59.3,92,79,58,29.89,29.75,14,2,18,0.00
2013-6-30,79.8,68.5,60.8,69.7,64.0,58.6,97,86,61,29.97,29.84,13,2,14,0.00
2013-7-1,76.3,69.1,63.7,67.2,64.7,61.7,95,87,69,30.09,29.94,18,3,18,0.00
2013-7-2,73.8,68.1,64.8,69.6,65.4,62.9,96,91,83,30.26,30.08,11,3,23,0.00
2013-7-3,72.3,68.3,66.1,69.0,66.9,65.0,97,95,88,30.33,30.23,9,2,13,0.00
2013-7-4,79.5,70.6,66.4,70.0,67.4,66.0,97,90,68,30.36,30.29,11,3,20,0.00
2013-7-5,78.3,71.3,66.6,71.0,67.5,65.0,96,88,74,30.35,30.29,11,3,15,0.00
2013-7-6,79.2,71.7,66.0,68.0,66.4,64.0,95,84,65,30.34,30.25,11,2,15,0.00
2013-7-7,78.2,70.2,64.9,71.0,66.4,63.0,96,88,71,30.29,30.20,8,2,12,0.00
2013-7-8,81.5,71.0,62.5,67.0,64.4,61.0,97,81,54,30.30,30.22,7,2,12,0.00
2013-7-9,84.7,75.1,67.7,71.0,66.6,61.0,94,77,45,30.28,30.19,6,2,10,0.00
2013-7-10,82.7,71.9,66.6,72.0,67.9,65.0,95,87,65,30.21,30.09,9,1,14,0.00
2013-7-11,79.8,70.5,66.7,71.0,67.4,65.0,96,90,68,30.09,30.02,4,1,10,0.00
2013-7-12,75.6,67.9,64.0,67.0,64.1,61.0,95,88,69,30.16,30.01,8,2,11,0.00
2013-7-13,72.0,66.9,63.3,68.0,64.8,62.0,97,93,84,30.29,30.15,8,2,15,0.00
2013-7-14,79.4,71.7,67.0,69.0,67.4,65.0,96,86,68,30.42,30.28,8,3,18,0.00
2013-7-15,83.5,76.4,65.7,68.9,67.2,64.0,98,75,53,30.45,30.39,8,1,10,0.00
2013-7-16,90.4,75.3,60.6,72.0,66.4,59.2,96,76,45,30.43,30.35,10,1,11,0.00
2013-7-17,87.6,73.1,68.3,73.5,69.0,66.0,97,88,56,30.39,30.29,14,1,16,0.00
2013-7-18,85.4,75.3,64.6,74.2,69.4,63.5,98,83,61,30.32,30.20,9,1,9,0.00
2013-7-19,86.8,75.4,64.9,72.5,68.5,63.4,96,81,54,30.24,30.12,12,1,14,0.00
2013-7-20,83.4,74.7,69.2,71.0,68.6,65.9,93,82,59,30.14,30.05,13,2,13,0.00
2013-7-21,83.0,72.6,66.2,71.6,67.5,64.3,95,85,62,30.13,30.06,15,1,15,0.00
2013-7-22,81.6,71.8,66.3,71.7,67.0,64.8,96,86,61,30.10,29.96,10,1,11,0.00
2013-7-23,82.0,72.3,65.8,68.6,65.9,63.8,96,82,58,29.97,29.90,16,3,16,0.00
2013-7-24,80.8,72.2,66.2,67.8,64.5,62.2,95,78,55,30.02,29.91,14,2,14,0.00
2013-7-25,75.8,67.6,59.7,63.8,61.5,58.2,97,82,61,30.17,30.01,10,1,10,0.00
2013-7-26,77.9,67.3,55.1,66.4,61.0,53.3,95,81,59,30.21,30.14,13,2,15,0.00
2013-7-27,68.6,65.6,63.5,65.1,63.5,61.3,96,93,86,30.16,30.05,14,2,14,0.00
2013-7-28,78.0,69.0,62.6,66.5,62.9,59.2,96,82,57,30.14,30.03,10,1,10,0.00
2013-7-29,76.9,66.0,56.0,59.4,56.3,53.0,94,73,47,30.31,30.14,11,2,11,0.00
2013-7-30,74.1,64.9,52.7,63.3,57.6,50.7,95,79,55,30.34,30.26,9,1,9,0.00
2013-7-31,68.2,65.0,62.4,64.1,61.7,58.5,95,89,76,30.27,30.10,6,1,6,0.00
2013-8-1,79.3,69.5,63.6,68.1,64.3,61.6,97,85,61,30.10,30.01,12,2,12,0.00
2013-8-2,78.9,69.1,59.5,64.3,60.2,55.6,96,75,46,30.16,30.06,11,2,13,0.00
2013-8-3,80.7,69.7,59.5,66.3,62.5,57.5,94,79,58,30.15,30.08,13,1,14,0.00
2013-8-4,78.3,69.7,62.2,66.0,60.9,55.9,96,75,50,30.18,30.06,16,3,16,0.00
2013-8-5,73.5,65.8,56.9,65.4,59.7,53.9,94,81,61,30.21,30.11,12,2,12,0.00
2013-8-6,78.4,70.4,64.6,69.0,64.9,62.0,93,83,63,30.15,30.08,12,2,12,0.00
2013-8-7,73.9,69.7,66.5,68.5,65.7,63.2,92,87,80,30.19,30.14,10,3,12,0.00
2013-8-8,79.4,72.0,68.0,71.3,66.9,63.4,91,84,70,30.18,30.13,10,2,10,0.00
2013-8-9,83.6,74.5,69.1,73.0,69.2,67.0,95,84,65,30.17,30.11,13,2,18,0.00
2013-8-10,82.6,73.9,67.9,72.0,68.7,66.0,96,84,65,30.22,30.16,12,2,15,0.00
2013-8-11,82.6,73.6,66.3,70.4,67.6,64.5,95,83,61,30.25,30.16,11,2,13,0.00
2013-8-12,83.6,74.0,66.3,70.2,66.8,64.6,95,80,55,30.20,30.09,11,2,12,0.00
2013-8-13,76.1,69.0,64.5,69.1,65.2,61.1,96,88,74,30.09,29.96,12,3,15,0.00
2013-8-14,71.4,63.2,54.8,61.4,54.5,47.5,90,74,52,30.21,30.01,15,4,17,0.00
2013-8-15,71.2,59.3,49.2,55.4,51.8,47.3,95,78,54,30.25,30.18,10,1,10,0.00
2013-8-16,70.0,58.6,45.9,58.2,52.6,44.3,95,82,63,30.27,30.20,9,1,9,0.00
2013-8-17,64.8,57.8,50.0,59.8,55.1,48.5,97,91,73,30.31,30.25,11,2,11,0.00
2013-8-18,69.1,63.1,60.1,65.0,61.3,59.0,97,94,83,30.31,30.23,9,1,10,0.00
2013-8-19,72.3,66.3,62.1,66.5,63.5,61.2,98,91,75,30.29,30.19,7,0,8,0.01
2013-8-20,78.4,68.0,61.2,68.8,64.8,60.1,98,90,70,30.30,30.21,10,0,10,0.00
2013-8-21,77.9,69.3,61.7,70.1,65.7,60.5,97,89,73,30.33,30.23,10,0,10,0.00
2013-8-22,81.2,70.3,60.6,69.0,64.8,59.7,97,84,59,30.26,30.14,12,2,13,0.00
2013-8-23,79.2,68.5,62.6,68.0,64.1,60.1,96,87,64,30.23,30.09,15,2,15,0.00
2013-8-24,75.3,64.8,54.6,61.0,56.0,52.6,98,76,46,30.41,30.23,11,1,14,0.00
2013-8-25,75.2,62.6,50.6,60.2,54.2,48.7,96,77,45,30.48,30.38,10,1,10,0.00
2013-8-26,78.8,64.8,49.7,63.9,56.9,48.0,95,78,50,30.41,30.22,10,1,10,0.00
2013-8-27,80.7,71.4,62.4,69.8,65.1,59.4,92,81,66,30.23,30.12,15,3,16,0.00
2013-8-28,81.4,72.3,66.5,70.2,67.2,64.2,94,84,65,30.15,30.02,13,2,14,0.00
2013-8-29,82.5,74.2,68.7,71.9,68.4,65.7,91,82,66,30.16,30.02,15,3,17,0.00
2013-8-30,78.8,71.3,65.1,68.6,65.9,63.4,96,83,65,30.18,30.07,9,2,9,0.00
2013-8-31,84.5,71.4,65.4,70.4,65.8,62.1,95,84,54,30.09,30.00,20,1,20,0.00
2013-9-1,81.0,69.8,62.4,69.0,65.4,61.0,97,87,61,30.03,29.96,11,1,12,0.00
2013-9-2,81.1,72.3,65.9,69.2,66.3,64.1,95,83,62,30.04,29.96,11,2,13,0.00
2013-9-3,81.3,71.5,63.0,68.1,63.8,57.8,94,78,52,30.12,29.96,13,3,16,0.00
2013-9-4,80.1,65.8,53.3,61.0,56.3,51.3,96,75,40,30.22,30.11,8,1,8,0.00
2013-9-5,80.0,66.2,53.9,61.3,56.7,51.9,95,74,47,30.25,30.19,17,2,17,0.00
2013-9-6,75.1,63.4,55.5,61.6,57.2,53.3,95,81,60,30.30,30.21,10,1,12,0.00
2013-9-7,80.5,65.2,52.0,65.8,57.7,50.0,95,79,44,30.24,30.10,11,1,11,0.00
2013-9-8,81.3,69.0,59.4,66.3,61.6,55.6,92,78,56,30.15,30.07,11,1,12,0.00
2013-9-9,75.5,66.6,58.7,67.6,63.2,57.0,97,89,74,30.28,30.15,13,2,13,0.00
2013-9-10,84.0,71.0,59.8,70.8,65.3,58.9,98,84,55,30.34,30.27,11,1,11,0.00
2013-9-11,83.6,71.6,63.0,71.2,66.4,60.9,96,85,60,30.32,30.20,9,1,11,0.00
2013-9-12,82.0,73.0,64.6,70.5,66.0,60.2,96,80,63,30.20,29.97,19,2,19,0.00
2013-9-13,71.7,64.4,52.1,62.2,54.0,46.3,92,71,43,30.06,29.92,25,4,25,0.00
2013-9-14,69.3,55.9,44.7,51.2,47.0,42.5,94,74,45,30.22,30.04,11,1,11,0.00
2013-9-15,72.3,58.1,43.9,57.7,51.2,42.0,95,80,52,30.29,30.21,10,1,12,0.00
2013-9-16,71.0,61.9,53.0,62.2,57.0,50.9,96,85,70,30.31,30.20,18,2,18,0.00
2013-9-17,65.9,53.4,42.3,53.0,48.9,40.9,97,86,57,30.42,30.31,10,1,12,0.00
2013-9-18,65.3,55.6,49.2,56.0,50.8,46.2,92,84,71,30.36,30.24,11,1,11,0.00
2013-9-19,71.5,62.9,57.3,64.0,59.1,53.9,94,87,73,30.26,30.17,7,1,8,0.00
2013-9-20,73.7,65.3,61.6,66.4,62.6,60.4,97,91,74,30.18,30.06,11,1,11,0.00
2013-9-21,67.0,62.0,55.0,64.0,60.4,54.2,97,95,89,30.07,29.83,13,3,14,0.00
2013-9-22,68.9,57.5,49.5,56.5,52.4,47.8,98,85,58,30.04,29.88,12,2,12,0.00
2013-9-23,69.9,55.4,46.2,57.0,50.5,44.6,96,85,56,30.14,30.03,9,1,9,0.00
2013-9-24,73.3,59.2,48.8,61.0,53.8,46.9,96,84,54,30.16,30.04,8,1,9,0.00
2013-9-25,65.1,56.4,47.4,58.1,53.2,45.9,96,90,72,30.06,29.97,9,1,10,0.00
2013-9-26,72.1,60.0,53.1,58.3,53.9,50.8,97,83,50,30.16,30.00,9,1,11,0.00
2013-9-27,70.3,57.3,44.6,55.0,50.2,43.0,96,79,52,30.28,30.16,10,1,10,0.00
2013-9-28,61.8,56.2,46.8,53.1,51.0,44.6,94,83,63,30.33,30.26,8,1,8,0.00
2013-9-29,68.7,54.6,43.7,55.8,49.1,41.8,95,83,57,30.26,30.13,9,1,9,0.00
2013-9-30,68.8,58.0,47.6,57.5,52.1,46.0,95,82,60,30.17,30.09,7,0,7,0.00
2013-10-1,73.7,60.0,48.3,59.3,53.7,46.6,96,81,54,30.22,30.14,12,1,14,0.00
2013-10-2,76.9,62.0,49.6,61.0,55.5,47.9,97,81,53,30.25,30.17,12,1,12,0.00
2013-10-3,75.9,62.6,51.2,63.3,56.8,49.3,96,83,59,30.24,30.17,6,0,7,0.00
2013-10-4,82.3,65.8,53.0,64.4,58.7,51.3,97,80,48,30.26,30.18,14,1,14,0.00
2013-10-5,81.4,67.0,54.6,64.6,59.4,52.6,96,79,49,30.25,30.15,10,1,10,0.00
2013-10-6,76.0,65.7,54.2,64.1,58.8,52.2,95,80,57,30.17,30.01,15,3,18,0.00
2013-10-7,66.8,59.7,48.6,64.3,55.0,43.9,97,85,69,30.14,29.90,20,4,23,0.00
2013-10-8,62.8,51.8,43.1,47.1,43.7,40.8,92,75,53,30.30,30.13,16,2,19,0.00
2013-10-9,65.4,51.3,40.7,46.5,41.8,38.3,95,73,42,30.31,30.22,13,2,14,0.00
2013-10-10,61.1,48.6,45.4,58.0,46.3,41.8,97,92,84,30.22,30.07,8,2,10,0.00
2013-10-11,65.8,60.1,56.1,58.6,55.7,52.8,91,85,76,30.08,30.03,15,4,16,0.00
2013-10-12,63.2,59.1,55.7,60.5,57.4,54.4,96,94,89,30.19,30.07,6,1,7,0.00
2013-10-13,65.4,59.2,57.1,59.8,57.3,55.7,97,94,81,30.32,30.19,10,1,10,0.00
2013-10-14,66.6,58.3,54.6,58.3,55.3,52.0,97,90,71,30.33,30.25,6,1,8,0.00
2013-10-15,67.3,56.3,47.1,53.8,50.0,45.7,97,81,52,30.29,30.16,9,1,11,0.00
2013-10-16,68.0,57.7,47.2,57.6,52.4,45.7,97,84,60,30.17,30.03,7,0,9,0.00
2013-10-17,64.9,59.5,53.3,61.3,56.7,49.2,94,91,82,30.05,29.91,15,2,15,0.00
2013-10-18,64.2,52.3,44.0,49.1,43.9,39.2,93,75,47,30.10,30.00,16,3,19,0.00
2013-10-19,59.5,48.8,45.1,54.0,46.3,43.0,96,91,58,30.06,29.90,9,1,16,0.00
2013-10-20,60.8,46.6,35.5,43.0,34.9,28.0,90,67,29,30.15,30.00,14,2,18,0.00
2013-10-21,64.6,48.0,31.9,47.0,40.4,30.0,94,77,52,30.18,30.04,5,1,13,0.00
2013-10-22,61.4,53.7,48.7,47.0,46.3,45.0,94,77,57,30.04,29.89,14,3,19,0.00
2013-10-23,52.8,45.3,34.3,48.0,39.0,30.0,95,80,54,30.01,29.78,18,5,28,0.00
2013-10-24,43.0,37.1,33.6,33.0,29.9,28.0,83,75,62,30.18,30.01,13,4,19,0.00
2013-10-25,41.0,34.0,27.5,30.0,27.1,23.0,94,77,56,30.34,30.17,13,4,22,0.01
2013-10-26,51.5,37.8,21.2,32.0,25.8,19.0,92,66,36,30.32,30.06,11,2,16,0.61
2013-10-27,60.1,49.0,39.8,39.0,36.1,33.0,85,62,42,30.16,30.06,16,4,24,0.61
2013-10-28,57.5,47.4,37.1,51.0,44.3,34.0,95,89,78,30.30,30.16,6,1,11,0.01
2013-10-29,64.3,55.2,47.8,52.0,49.6,47.0,97,83,62,30.38,30.29,5,1,10,0.01
2013-10-30,67.1,58.4,53.5,57.0,53.3,49.0,94,84,69,30.32,30.22,7,2,17,0.03
2013-10-31,63.3,61.2,57.9,58.0,54.6,52.0,89,79,72,30.23,29.90,15,4,22,0.04
2013-11-1,71.9,62.8,52.7,59.0,54.4,44.0,93,75,47,29.89,29.74,24,6,39,0.02
2013-11-2,59.0,51.7,43.6,44.0,37.4,31.0,76,59,41,30.00,29.81,14,6,19,0.00
2013-11-3,51.0,42.6,31.2,35.0,32.6,28.0,87,69,50,30.38,30.00,13,4,17,0.00
2013-11-4,49.9,38.2,28.5,31.0,27.4,24.0,91,66,46,30.52,30.37,8,1,10,0.00
2013-11-5,52.5,41.7,32.1,44.0,34.9,25.0,95,77,66,30.54,30.44,12,2,14,0.00
2013-11-6,64.2,53.2,45.0,49.0,46.7,44.0,96,80,58,30.44,30.16,9,2,15,0.01
2013-11-7,55.7,48.1,36.0,52.0,41.7,27.0,92,79,61,30.15,30.04,14,5,27,0.01
2013-11-8,45.0,36.7,27.9,27.0,24.2,22.0,77,62,41,30.31,30.14,13,5,25,0.00
2013-11-9,50.0,37.6,23.1,28.0,24.2,20.0,88,61,37,30.32,30.16,7,2,14,0.00
2013-11-10,58.3,48.1,37.1,36.0,28.4,21.0,68,49,26,30.28,30.12,20,8,29,0.00
2013-11-11,56.3,43.3,30.4,27.0,23.4,17.0,73,48,23,30.32,30.14,9,2,14,0.00
2013-11-12,46.8,36.0,23.3,36.0,23.2,16.0,78,62,35,30.39,30.06,14,6,22,0.00
2013-11-13,36.3,27.6,20.7,18.0,14.6,11.0,79,60,36,30.45,30.36,22,6,23,0.00
2013-11-14,54.6,38.5,24.4,19.0,14.3,7.0,68,41,19,30.40,30.29,11,2,15,0.00
2013-11-15,58.9,43.2,29.2,45.0,29.2,16.0,93,61,21,30.30,30.21,11,1,18,0.11
2013-11-16,54.7,48.4,42.2,51.0,46.6,41.0,96,93,85,30.29,30.22,7,2,10,0.13
2013-11-17,59.3,54.2,50.5,57.0,52.2,49.0,96,93,86,30.24,29.91,11,4,22,0.03
2013-11-18,59.6,52.1,41.6,57.0,37.8,25.0,91,61,34,30.04,29.89,18,8,27,0.14
2013-11-19,44.7,36.9,30.4,27.0,24.9,23.0,80,63,44,30.30,30.02,14,4,24,0.00
2013-11-20,42.3,35.1,29.3,28.0,24.0,22.0,77,65,49,30.44,30.28,9,4,13,0.00
2013-11-21,51.3,41.8,34.4,45.0,37.4,28.0,89,84,75,30.48,30.38,8,2,10,0.00
2013-11-22,65.6,55.2,48.0,54.0,50.7,44.0,92,85,66,30.39,30.14,10,4,18,0.00
2013-11-23,52.7,40.4,26.7,50.0,31.7,15.0,92,73,44,30.20,30.11,20,8,35,0.00
2013-11-24,26.3,20.8,16.3,16.0,4.4,-2.0,74,51,30,30.43,30.20,20,8,30,0.00
2013-11-25,32.4,24.2,13.5,19.0,7.7,4.0,77,52,35,30.43,30.28,7,2,13,0.00
2013-11-26,40.1,35.3,27.8,39.0,33.7,22.0,97,94,72,30.28,29.68,9,2,15,1.85
2013-11-27,39.9,27.9,19.3,39.0,23.6,12.0,97,84,68,30.09,29.65,22,10,31,1.90
2013-11-28,38.1,25.2,18.1,19.0,15.3,11.0,81,67,41,30.39,30.08,15,4,25,0.00
2013-11-29,40.2,30.8,22.3,23.0,19.4,16.0,83,63,47,30.57,30.38,9,3,15,0.00
2013-11-30,35.9,28.1,21.6,23.0,20.1,17.0,85,73,57,30.57,30.31,8,1,11,0.00
2013-12-1,51.8,33.6,19.4,29.0,21.8,16.0,90,66,35,30.30,30.04,9,1,14,0.00
2013-12-2,48.2,36.3,24.4,37.0,30.3,21.0,91,80,62,30.04,29.87,4,0,7,0.00
2013-12-3,57.3,45.5,35.4,45.0,39.7,32.0,92,81,61,30.00,29.89,6,1,9,0.00
2013-12-4,61.3,51.8,46.4,52.0,48.4,45.0,96,88,72,30.10,29.99,9,2,13,0.00
2013-12-5,64.0,58.5,53.7,58.0,55.2,51.0,94,88,75,30.14,30.05,11,4,17,0.02
2013-12-6,67.0,61.7,45.9,61.0,58.0,44.0,94,88,79,30.11,29.98,15,6,25,0.39
2013-12-7,45.6,34.5,29.9,44.0,31.8,27.0,100,90,83,30.42,30.08,12,5,22,0.59
2013-12-8,32.0,27.9,24.8,30.0,26.3,23.0,95,93,90,30.39,30.20,7,2,11,0.01
2013-12-9,53.9,42.2,29.7,49.0,39.9,28.0,96,91,80,30.19,30.06,15,3,19,0.03
2013-12-10,38.4,32.8,26.5,37.0,27.9,15.0,95,83,61,30.23,29.96,16,6,28,0.04
2013-12-11,44.1,32.5,22.5,19.0,15.9,13.0,76,53,32,30.35,30.23,18,6,21,0.04
2013-12-12,31.6,26.9,23.7,19.0,11.4,2.0,71,54,29,30.33,30.24,13,6,19,0.00
2013-12-13,44.1,32.3,23.7,22.0,15.7,10.0,64,51,36,30.30,30.21,10,4,16,0.00
2013-12-14,36.2,32.7,31.4,31.0,28.1,21.0,95,84,59,30.26,29.78,9,1,14,0.30
2013-12-15,39.5,33.5,28.6,39.0,29.0,24.0,96,84,71,30.04,29.74,19,8,30,0.33
2013-12-16,45.8,34.9,27.1,30.0,27.1,24.0,88,75,52,30.12,30.02,12,4,16,0.00
2013-12-17,51.0,40.1,31.8,34.0,30.9,25.0,93,71,50,30.10,29.90,22,5,27,0.06
2013-12-18,38.6,31.2,25.2,23.0,18.2,15.0,73,60,39,30.23,30.00,18,6,28,0.06
2013-12-19,61.5,44.1,29.4,27.0,21.7,14.0,59,43,26,30.26,30.18,7,2,13,0.00
2013-12-20,58.6,49.9,44.5,39.0,29.4,22.0,67,46,34,30.19,30.10,10,3,21,0.00
2013-12-21,62.1,57.3,50.8,59.0,52.0,39.0,90,82,62,30.13,30.03,15,6,31,0.01
2013-12-22,64.7,59.1,55.0,60.0,56.4,53.0,94,91,77,30.14,30.00,15,5,31,0.61
2013-12-23,58.8,45.8,28.7,57.0,43.2,25.0,97,90,82,30.21,30.03,13,4,19,1.32
2013-12-24,31.4,25.4,16.4,24.0,17.9,9.0,88,73,56,30.37,30.17,14,6,23,0.00
2013-12-25,33.1,21.7,11.6,12.0,8.6,5.0,88,60,33,30.42,30.27,12,2,14,0.00
2013-12-26,42.3,31.0,18.5,25.0,17.8,9.0,74,59,44,30.34,30.22,15,4,23,0.00
2013-12-27,48.4,32.6,21.3,20.0,17.4,13.0,81,57,29,30.41,30.32,8,1,10,0.00
2013-12-28,53.2,37.5,22.9,39.0,21.9,16.0,94,58,23,30.36,30.15,7,1,11,0.20
2013-12-29,46.3,41.1,36.0,43.0,38.4,34.0,96,90,81,30.15,29.76,16,5,27,1.08
2013-12-30,40.1,35.9,29.7,35.0,31.1,26.0,87,83,79,30.12,29.94,13,5,24,0.00
2013-12-31,38.9,32.5,28.4,28.0,20.6,15.0,88,63,40,30.31,30.09,16,5,26,0.00
2014-1-1,45.5,33.4,21.8,27.0,21.4,15.0,87,64,30,30.33,30.09,9,2,17,0.00
2014-1-2,41.3,34.8,24.3,39.0,29.3,19.0,95,81,66,30.09,29.65,15,3,38,0.13